Theta_e
308 308 308 308 308 308 308 308 308 308 308 308 308 307 308 308 307 307 307 307 307 307 307 307 307 307 307 307 307 308 310 312 313 314 315 315 314 315 315 315 316 315 316 314 313 315 314 314 314 314 317 316 317 318 315 322 327 324 327 323 322 328 328 329 331 326 321 323 325 321 319 318 321 321 316 314 315 318 317 318 320 316 314 313 310 309 310 310
309 309 308 308 308 308 308 308 308 308 308 308 308 308 308 308 307 308 307 307 307 307 308 308 308 307 307 307 307 309 311 313 315 316 317 316 317 316 315 315 316 316 316 314 314 316 316 317 313 315 321 318 318 318 318 320 322 328 329 322 325 331 328 328 331 327 321 320 320 319 319 317 319 319 315 316 319 319 317 319 318 318 318 313 308 308 309 308
310 310 309 309 309 309 309 309 309 308 308 308 308 308 308 308 308 308 308 308 308 308 308 308 308 308 308 308 308 310 312 314 316 317 318 317 317 318 316 316 317 316 315 313 314 314 316 317 312 317 322 318 321 321 322 321 320 330 327 323 332 331 325 326 325 323 321 319 318 319 317 316 319 316 314 317 320 319 318 318 317 320 321 319 315 307 306 307
311 311 310 310 310 310 310 309 309 309 309 309 309 309 309 309 309 308 308 308 308 308 308 308 308 309 308 308 309 311 312 313 313 316 317 316 315 316 316 317 316 315 315 312 313 314 315 314 312 319 321 320 325 322 325 326 322 326 323 326 335 326 322 325 323 322 322 317 316 318 315 316 319 316 315 317 318 317 317 317 317 319 319 321 322 309 305 305
312 311 311 311 311 311 311 310 310 310 310 310 310 310 310 310 309 309 309 308 308 308 308 309 308 309 308 309 310 311 315 314 314 317 318 316 315 316 317 317 317 315 314 312 314 315 314 313 312 319 319 320 323 320 327 328 322 324 323 326 330 322 320 321 322 323 321 316 316 317 316 316 316 315 317 317 316 316 317 319 317 318 318 320 322 310 304 305
312 312 311 311 311 311 311 311 310 310 310 310 310 310 310 310 311 310 310 309 309 308 308 308 308 308 308 309 311 312 314 315 315 316 317 316 315 315 317 318 317 314 312 313 315 315 314 314 314 319 319 318 320 319 324 324 319 322 324 325 325 321 320 319 320 321 319 316 317 317 315 314 315 315 318 317 316 315 317 321 319 318 314 313 314 309 308 308
312 312 311 311 311 311 310 310 310 310 310 310 310 310 310 310 310 310 310 311 310 309 309 308 309 308 309 310 313 316 317 316 314 315 315 316 316 316 317 318 317 314 311 313 314 314 316 316 316 320 320 318 320 321 320 319 318 320 323 324 323 321 321 320 318 319 319 318 318 315 313 313 315 315 315 315 315 314 315 318 318 315 309 309 315 314 312 310
312 312 312 312 311 311 311 311 311 311 310 310 310 310 309 309 309 309 309 310 310 311 309 309 309 308 309 312 315 320 320 317 314 314 316 317 318 316 316 318 316 312 311 312 313 313 315 317 316 317 319 319 319 319 318 316 319 322 322 323 322 320 322 321 317 318 318 318 315 313 314 315 315 313 313 314 314 313 314 315 316 314 311 314 319 316 311 309
313 313 313 313 313 313 313 313 312 312 312 312 311 311 311 310 310 309 309 309 309 310 311 310 309 309 311 313 314 317 318 315 314 316 317 318 319 316 316 316 314 311 310 312 313 311 314 318 318 317 318 319 317 317 318 317 320 323 322 322 322 320 320 319 316 316 316 317 314 313 316 315 314 313 313 314 313 314 314 315 315 313 315 317 317 314 310 310
315 315 314 314 314 313 313 313 313 313 313 313 313 313 312 312 311 311 310 309 308 309 310 310 310 311 313 313 313 314 315 316 316 316 316 317 317 316 315 315 313 311 310 311 311 310 313 316 316 316 316 317 316 316 318 318 318 321 320 321 320 318 317 316 315 315 314 316 316 314 316 316 313 313 314 315 316 316 316 316 315 312 314 315 314 312 309 309
315 315 315 314 314 314 314 313 313 313 313 313 313 313 313 313 312 312 311 310 310 309 308 310 310 310 312 312 312 313 314 315 316 315 315 315 315 315 315 314 313 311 310 310 309 309 311 312 312 313 314 315 316 316 316 317 315 315 316 317 318 316 316 315 314 314 313 315 317 314 314 315 313 313 315 314 316 316 315 317 316 315 314 312 312 311 309 308
315 315 315 315 314 314 313 313 313 312 312 312 312 312 312 312 312 312 313 312 311 310 308 309 309 310 313 314 313 313 313 313 314 314 314 314 315 314 313 313 312 311 310 308 310 310 310 311 312 314 316 314 315 315 315 315 314 314 314 315 317 316 315 315 314 315 314 315 317 314 313 316 315 315 315 313 314 314 314 316 315 315 314 311 311 310 309 308
315 315 315 315 314 314 313 313 313 313 312 312 312 312 311 311 311 311 312 313 312 311 309 308 309 310 313 316 315 313 313 313 312 313 313 314 314 313 312 312 311 311 311 309 310 312 312 312 312 315 316 315 317 315 312 314 314 315 315 314 315 315 316 315 315 316 314 315 316 314 313 316 316 315 314 313 313 312 314 316 314 314 313 311 310 309 309 308
315 315 315 315 315 314 314 314 314 314 313 313 312 312 311 311 310 310 311 312 312 311 309 308 310 311 314 317 313 312 314 313 313 313 313 314 313 313 312 311 311 311 312 311 312 314 315 313 312 314 314 315 317 313 313 320 320 317 313 315 316 316 317 315 314 315 313 314 316 314 313 314 314 314 313 313 313 313 315 315 314 313 313 311 310 310 310 308
315 315 315 315 315 315 314 314 314 314 314 314 312 312 311 311 311 310 310 311 312 312 310 310 313 313 315 317 313 312 314 313 314 313 313 314 313 312 312 312 313 312 313 313 313 313 314 314 314 315 315 313 313 315 320 324 326 323 314 317 320 317 316 315 313 314 314 313 312 313 316 314 313 314 313 313 313 314 315 315 315 314 313 312 311 310 309 308
315 315 316 316 316 315 315 315 315 315 315 313 313 313 311 310 311 310 310 311 311 311 311 312 314 313 314 314 313 313 314 314 315 314 314 314 313 313 312 312 312 312 313 312 312 313 313 314 313 315 316 312 314 322 324 321 326 325 315 316 320 317 316 315 315 317 315 313 311 312 315 315 314 316 315 313 313 314 315 315 314 314 313 312 311 310 309 309
316 316 316 316 316 316 316 315 315 316 315 314 314 313 311 312 312 311 312 311 311 312 312 314 315 312 312 311 312 314 314 314 314 315 315 314 313 313 312 312 311 311 312 311 312 313 312 312 311 314 317 316 318 322 321 318 320 320 316 316 319 317 314 315 317 318 314 313 313 313 313 313 314 314 315 314 313 314 314 314 314 313 312 311 310 309 309 308
316 316 317 316 316 316 316 316 316 316 315 315 314 313 312 313 313 312 313 312 312 313 314 315 314 312 313 313 312 314 314 313 314 314 314 314 312 312 313 312 309 309 311 312 312 312 313 314 316 317 318 316 316 317 317 318 317 316 317 317 318 317 315 315 315 315 314 313 313 313 312 312 312 312 312 312 312 313 313 312 313 312 311 310 310 310 310 310
317 317 316 316 316 316 316 316 316 316 315 315 314 312 313 315 315 313 313 314 315 315 314 315 313 313 315 315 312 313 314 314 314 313 313 313 312 312 312 311 311 313 313 314 313 313 316 318 318 317 316 314 314 314 315 315 314 314 315 315 316 315 313 314 313 312 313 312 312 312 311 311 311 311 311 311 311 312 312 311 310 310 310 310 310 310 310 310
317 317 316 316 316 316 316 316 316 316 315 316 313 312 316 319 319 317 316 316 317 316 317 317 315 315 315 314 313 314 315 315 315 314 312 312 312 313 312 311 314 315 314 318 318 314 315 318 318 317 316 314 313 313 313 313 313 312 313 314 314 313 312 312 311 311 311 310 311 313 311 311 311 311 311 311 311 312 312 311 311 311 311 311 311 311 311 311
317 317 317 317 317 316 317 316 316 316 316 315 312 313 316 314 314 316 315 316 313 310 315 317 312 314 314 312 313 314 315 315 315 314 312 312 313 314 315 313 315 315 315 320 318 312 312 315 317 317 315 313 313 313 312 312 313 313 314 314 314 313 312 311 311 311 311 310 311 313 312 311 311 311 311 311 311 311 312 312 312 312 311 312 311 311 311 311
318 318 318 318 318 318 318 317 317 316 317 316 312 311 311 308 309 310 309 314 313 307 311 313 309 311 312 311 312 312 314 315 316 316 313 312 313 315 317 315 316 317 316 317 316 314 314 314 314 314 313 313 313 312 312 313 313 314 314 314 314 313 312 312 312 312 311 312 315 316 313 310 311 312 311 312 311 312 312 312 312 312 312 312 312 312 311 311
321 320 320 320 320 320 320 319 318 317 317 315 312 310 309 307 307 308 307 313 315 311 313 314 311 311 311 311 311 311 313 314 314 317 314 312 313 316 315 315 316 317 316 316 315 317 317 315 313 312 312 313 313 312 313 313 313 314 315 314 314 312 312 313 313 315 312 312 317 316 312 311 311 311 311 311 311 311 312 312 313 313 312 312 312 313 312 312
323 322 322 321 321 321 320 320 319 317 316 315 312 310 310 308 306 308 310 313 315 314 314 312 309 312 313 311 310 311 313 313 313 314 313 312 314 314 314 315 316 316 315 314 315 316 316 316 315 312 312 313 314 313 314 314 313 314 314 313 313 313 312 313 314 316 314 314 317 315 312 314 314 313 312 311 311 311 311 311 312 312 312 312 312 312 312 312
325 325 324 323 323 322 321 321 319 317 318 315 312 311 311 308 306 307 310 315 318 317 313 308 308 312 312 309 311 312 312 313 314 314 311 312 313 313 313 314 315 316 314 313 314 314 313 315 316 314 314 314 314 314 315 316 313 313 315 314 313 313 313 313 314 314 315 320 319 315 315 317 318 317 315 313 312 311 311 311 311 311 311 311 312 311 311 311
325 325 325 324 324 323 322 321 317 318 319 314 312 312 310 307 306 307 310 316 322 321 315 310 311 312 310 309 311 313 315 314 312 311 310 311 311 312 313 312 313 314 314 314 313 313 314 313 314 317 318 317 315 314 315 315 313 313 320 319 313 312 314 315 315 314 319 324 317 314 318 318 317 318 318 316 315 314 314 313 312 311 311 312 312 312 312 312
325 325 325 324 323 323 322 321 318 320 320 315 313 312 309 308 306 305 310 320 324 322 316 312 311 311 310 310 310 313 318 316 311 310 311 310 310 311 313 313 312 312 312 314 314 314 315 313 314 316 316 317 316 315 315 314 313 316 322 324 318 316 317 316 314 315 320 321 316 316 319 319 317 317 317 317 316 316 315 314 314 312 312 313 313 313 313 312
324 324 324 324 323 322 321 321 320 319 319 316 314 312 308 307 307 306 314 327 328 319 316 314 310 311 312 309 310 312 313 311 311 311 308 308 310 311 312 313 313 313 313 314 314 315 315 316 317 316 314 317 316 314 316 314 314 318 318 319 319 319 318 317 317 318 317 318 318 316 317 320 319 316 316 315 314 317 316 315 315 313 314 314 314 315 314 312
324 324 324 323 322 321 320 321 320 319 318 316 314 312 307 305 306 309 319 327 326 315 314 314 310 311 313 310 311 313 311 309 310 311 308 309 310 310 312 312 311 313 313 313 313 313 314 315 317 317 316 315 314 316 320 318 315 317 317 318 319 321 320 320 321 319 318 320 319 318 317 319 319 317 319 316 315 319 317 315 314 313 315 316 315 314 313 313
322 322 323 323 320 319 319 319 320 320 319 317 316 312 307 308 309 314 326 326 321 317 315 313 312 313 313 313 314 315 312 311 311 312 312 312 312 312 311 309 311 316 315 314 314 314 312 311 311 315 315 315 317 317 315 317 316 315 319 324 324 324 323 324 325 320 319 321 320 321 319 317 318 319 320 320 319 319 316 315 317 316 316 317 316 315 313 313
319 320 322 321 320 319 319 319 320 320 319 318 316 310 310 316 316 322 331 323 318 322 315 313 316 316 316 314 316 316 313 313 312 313 314 312 313 316 312 310 314 320 320 315 315 314 312 310 313 318 318 317 318 315 311 314 315 315 323 326 323 324 323 323 325 321 320 322 320 321 318 316 318 317 317 319 319 318 316 317 322 323 320 321 324 320 313 312
316 318 319 320 320 320 319 320 319 319 320 316 313 314 319 323 321 323 327 322 323 325 315 314 316 318 319 314 317 320 314 314 313 313 317 316 316 317 314 315 317 319 322 320 319 318 316 314 314 315 316 316 317 317 316 315 314 315 322 321 319 323 321 321 323 321 321 321 317 317 316 315 317 316 317 318 317 318 319 317 320 324 324 325 328 322 315 314
313 314 316 318 319 319 319 320 319 318 318 314 314 320 324 326 326 326 324 324 327 322 315 317 315 315 317 315 322 323 313 316 316 312 315 314 314 317 316 317 318 315 318 319 319 321 319 316 313 311 313 316 317 316 317 317 316 315 318 319 319 321 320 322 325 322 321 320 316 314 317 317 317 320 320 316 314 317 318 317 318 319 320 320 320 317 314 314
311 311 312 315 317 319 319 318 318 318 317 315 318 323 324 325 326 325 324 326 328 321 316 318 317 316 315 316 326 323 313 319 318 311 313 313 312 318 318 315 313 314 315 314 317 319 317 317 316 314 317 318 315 314 316 320 318 314 316 320 319 321 324 326 327 323 321 321 316 312 317 322 320 320 322 317 315 319 319 318 318 316 315 314 314 313 313 312
309 309 310 312 314 317 318 318 318 318 316 315 318 323 325 326 325 324 327 328 326 322 317 317 317 319 320 320 325 322 315 319 319 312 314 315 315 319 321 317 312 313 315 314 317 318 316 319 319 315 316 316 314 315 318 322 319 314 318 320 316 319 323 322 322 323 320 320 317 314 320 323 318 316 319 319 318 320 319 316 314 314 314 313 315 316 316 314
307 308 309 311 313 315 317 318 317 316 316 316 319 323 323 324 325 326 326 322 318 319 320 319 319 321 323 324 326 322 314 315 316 314 314 316 317 318 320 320 314 311 313 314 318 319 316 320 319 312 312 313 312 314 317 319 318 315 316 319 316 317 318 316 321 322 318 318 318 318 320 319 318 318 316 315 316 315 317 316 314 316 316 317 318 318 318 318
304 306 308 310 311 313 315 317 317 315 315 317 321 324 322 322 324 326 324 318 315 317 319 320 321 322 324 326 327 324 317 316 315 314 317 318 317 317 319 320 315 311 311 313 316 319 316 317 317 313 312 312 310 312 315 315 315 318 319 317 314 316 317 317 320 321 318 318 318 317 319 317 318 319 315 317 321 319 318 317 316 317 317 317 317 317 317 316
303 305 308 309 310 311 313 316 316 314 315 318 321 323 322 321 322 322 322 318 316 317 318 320 322 324 325 325 326 324 320 321 319 317 321 321 317 319 320 319 315 312 311 310 313 318 317 314 317 317 315 315 312 313 316 312 311 317 319 315 315 318 319 318 320 320 318 319 318 318 319 316 317 319 317 319 323 322 318 316 316 317 316 316 317 316 316 314
304 306 309 310 310 310 312 315 315 313 316 319 321 322 321 320 320 322 322 319 317 318 320 322 323 324 325 322 322 324 323 322 322 321 323 324 321 319 318 316 315 313 311 310 312 317 317 314 317 317 314 314 314 315 320 318 312 312 312 312 314 316 318 319 320 320 318 319 319 319 320 318 319 325 323 318 320 321 318 318 321 320 316 316 315 315 315 314
305 308 309 311 312 312 312 314 314 314 318 320 319 320 320 320 321 322 321 318 317 319 319 321 323 322 322 322 321 324 324 323 324 323 323 325 324 321 319 317 315 315 314 312 312 316 317 316 317 318 316 315 315 316 322 322 317 314 313 313 313 313 317 318 316 317 318 317 319 320 321 319 320 325 324 319 320 320 318 321 324 320 316 314 313 314 315 315
306 308 309 311 313 313 313 314 315 316 318 319 319 319 318 318 319 319 319 317 317 319 317 318 322 321 319 321 321 321 323 323 323 323 322 323 323 322 321 318 316 319 319 316 316 318 320 319 318 319 319 318 317 318 319 320 319 316 314 315 314 314 317 317 317 318 318 317 318 320 321 320 318 319 317 316 318 316 316 320 319 317 315 314 315 316 316 315
306 308 310 312 314 314 314 316 317 316 317 318 318 318 317 317 318 317 317 316 316 317 316 316 319 319 317 318 319 319 320 322 322 321 321 320 320 320 319 317 318 321 320 320 322 321 321 320 318 318 319 319 319 318 318 317 316 314 313 315 315 315 315 317 319 319 318 317 317 318 319 321 320 318 316 316 316 314 315 317 315 315 315 314 316 316 314 313
307 308 309 311 313 314 315 318 318 316 317 317 317 317 317 317 318 317 316 316 316 316 317 317 316 317 317 317 318 318 318 319 320 319 319 319 318 318 317 318 320 319 318 320 322 320 317 318 318 318 319 321 319 318 317 314 313 314 314 313 314 314 313 315 317 317 318 318 318 319 320 322 324 321 317 316 316 315 315 316 315 315 314 314 315 314 313 313
305 306 307 309 311 312 314 318 318 317 317 316 316 316 316 316 317 316 316 316 316 316 316 316 316 316 317 317 317 317 317 318 318 318 319 318 317 318 317 317 318 317 318 321 321 319 318 319 320 320 320 322 321 320 318 315 313 314 315 314 314 313 313 315 316 316 316 316 317 319 319 320 324 324 318 316 316 314 314 314 314 314 315 315 315 314 313 312
302 304 305 305 308 310 313 316 316 316 316 315 316 316 315 316 316 316 316 315 315 316 316 316 316 315 315 315 315 316 317 317 317 318 319 318 320 319 315 312 313 314 316 317 316 317 317 319 321 320 321 322 321 319 320 319 317 315 315 315 315 314 314 314 316 316 316 317 317 318 318 318 319 320 317 315 314 313 313 313 313 315 316 316 315 314 314 312
301 304 304 304 307 308 310 312 312 314 314 314 315 315 315 316 315 315 316 315 315 315 315 315 314 313 314 314 314 314 315 315 315 315 316 318 319 314 308 308 311 311 313 314 312 312 314 316 317 318 318 319 318 317 318 319 318 317 317 316 316 315 315 314 316 316 317 317 316 317 317 316 316 316 316 314 313 313 313 312 312 313 315 316 314 313 311 308
300 301 302 305 307 307 308 309 310 312 312 312 314 314 314 314 314 314 314 315 315 314 313 314 313 313 315 314 314 314 314 314 314 313 313 312 310 306 304 307 309 308 309 310 309 310 311 313 315 315 315 316 316 316 316 316 316 316 317 316 316 316 315 314 315 315 315 317 316 316 316 317 316 315 314 314 313 313 312 312 313 312 313 313 310 306 303 301
298 299 301 303 304 305 307 306 306 306 308 309 309 311 311 311 311 312 312 313 314 313 314 314 310 308 309 309 310 311 311 312 312 310 308 305 302 302 304 306 306 305 304 304 305 308 310 311 313 314 314 314 314 314 315 315 315 315 316 315 315 315 315 315 314 314 314 315 315 315 315 316 315 314 314 314 313 313 313 312 312 311 310 306 302 299 298 297
297 298 299 300 300 301 302 301 300 302 303 305 306 308 310 309 309 310 311 313 312 311 313 312 306 303 302 304 306 306 307 309 309 306 304 301 300 302 303 304 305 304 301 301 303 306 308 309 311 312 312 313 313 313 313 313 314 314 314 315 315 314 314 314 314 314 313 314 314 313 314 314 313 312 311 309 307 307 308 306 304 303 301 298 297 296 295 295
297 297 297 298 298 298 299 299 299 300 301 302 304 306 307 308 309 310 309 309 310 310 311 308 303 300 301 302 303 303 303 305 306 304 302 300 300 301 301 302 303 301 299 300 303 306 308 309 310 310 310 310 311 312 313 313 313 313 313 313 313 313 313 314 314 314 314 314 313 313 315 314 309 303 300 299 297 298 299 298 296 295 295 294 294 294 294 294
295 296 297 296 296 297 298 298 299 299 300 301 303 305 306 306 306 305 305 305 306 307 306 302 300 299 300 300 300 301 302 302 302 302 301 299 299 300 299 299 300 299 298 300 303 304 305 306 307 308 308 309 310 311 312 312 312 312 312 312 312 312 313 312 313 314 314 314 315 315 314 308 299 295 295 295 294 294 295 295 294 293 293 293 293 293 293 293
294 295 296 296 295 296 297 297 297 298 299 300 301 302 303 301 300 300 303 304 303 302 300 298 297 298 298 299 300 301 301 300 299 299 299 299 299 298 298 298 298 298 299 299 301 302 303 304 305 306 307 307 307 309 310 310 310 311 312 313 313 313 313 313 313 313 311 311 310 308 303 297 294 293 293 293 293 293 293 294 294 292 292 293 292 293 292 292
Wind_Speed
7 7 7 8 8 9 9 9 9 10 10 10 10 10 11 11 11 11 11 12 12 12 12 13 13 14 14 12 11 10 10 10 9 7 7 10 10 9 10 7 5 8 9 6 6 7 5 3 4 4 3 2 2 1 0 1 2 2 3 2 3 3 4 5 7 6 3 4 5 5 1 5 5 5 1 2 1 4 3 4 5 5 4 3 3 4 3 18
7 8 8 8 8 8 9 9 9 9 9 10 10 10 10 10 11 11 11 12 12 13 13 13 14 15 16 14 12 11 12 11 9 8 8 7 7 8 10 9 8 9 9 8 9 10 7 3 5 5 4 1 1 1 0 1 2 2 3 2 4 6 5 6 7 5 3 4 6 7 3 5 6 4 1 3 7 4 4 6 4 7 9 4 1 3 13 22
8 9 9 9 9 9 9 9 10 10 10 10 10 10 10 10 10 11 11 11 12 12 13 13 14 15 16 15 12 12 13 9 6 5 2 4 5 4 9 11 9 10 10 8 8 9 6 7 10 7 4 0 1 1 1 0 2 2 3 2 6 7 6 6 7 7 7 4 6 8 2 3 7 4 1 4 8 6 7 7 4 7 12 9 3 7 15 20
9 10 10 10 10 10 10 10 11 10 10 10 10 10 10 10 10 10 11 10 11 11 12 12 13 14 15 14 12 12 11 6 3 3 2 4 7 4 6 11 10 10 11 8 6 8 5 8 10 6 4 1 3 1 1 3 3 2 4 5 7 5 4 8 8 9 8 4 4 5 2 4 7 3 3 3 6 9 9 9 10 11 14 11 6 8 15 17
10 11 11 11 11 11 12 12 12 12 12 11 11 11 11 11 11 11 11 10 10 10 11 11 12 12 13 12 9 9 8 5 2 3 1 7 8 5 4 9 12 11 11 9 6 8 6 8 7 4 3 1 1 2 3 5 4 2 5 7 7 5 4 9 7 7 6 3 3 4 4 6 4 2 5 6 8 11 7 8 12 13 14 10 9 10 12 13
11 11 12 12 12 12 13 13 13 13 13 13 12 12 12 12 12 12 11 11 11 10 10 10 11 11 11 10 6 5 4 1 5 3 8 10 8 5 3 8 12 11 11 9 7 8 5 5 5 2 2 1 3 4 5 3 4 3 5 6 7 7 6 7 4 5 4 2 5 5 4 3 4 8 5 9 14 15 7 7 11 12 12 9 10 11 12 13
11 11 11 11 11 12 12 13 13 13 13 13 13 13 13 13 13 13 12 12 11 10 10 10 10 10 10 7 5 3 4 5 11 9 11 10 7 5 4 8 12 12 13 11 9 7 5 5 3 4 3 1 4 6 5 1 2 4 5 5 6 7 9 9 7 6 4 6 9 3 4 5 9 10 0 6 18 16 10 8 9 9 6 6 9 12 15 16
11 11 11 10 10 11 11 12 12 13 13 13 13 13 13 13 13 13 13 13 12 11 11 10 10 10 10 4 1 3 1 9 15 11 10 8 6 5 6 9 12 14 15 15 12 8 5 6 6 4 2 4 4 4 4 1 1 5 7 5 4 4 8 10 7 7 7 8 6 3 8 11 12 6 4 14 21 15 11 10 10 8 4 7 10 13 14 14
10 10 11 10 10 10 11 11 12 12 13 13 13 13 13 13 13 13 13 14 13 12 11 10 10 9 7 1 3 2 5 8 9 7 8 7 7 7 8 10 13 16 14 14 13 10 6 6 7 5 4 4 4 4 3 2 4 7 8 5 4 6 8 8 7 7 7 6 3 3 12 15 8 3 9 19 20 13 9 10 10 8 7 8 10 12 13 14
10 10 11 11 10 11 11 11 12 13 13 13 13 13 14 14 13 14 14 14 14 13 12 10 9 8 6 1 2 4 7 6 6 8 9 9 9 9 11 11 13 17 14 9 11 11 7 7 6 5 4 2 4 4 3 5 5 5 5 6 6 8 8 6 7 6 4 5 7 7 14 16 4 1 10 17 9 3 4 7 6 7 10 10 9 10 11 13
10 11 11 11 11 11 11 12 13 14 14 15 15 15 15 15 14 15 14 14 14 13 13 11 9 8 6 3 3 6 8 7 9 10 11 12 12 12 13 13 14 17 15 7 10 14 9 7 6 5 2 2 2 3 3 5 2 2 2 6 8 7 9 8 8 6 3 5 8 11 12 14 3 3 13 20 7 1 4 8 6 7 10 10 10 10 9 11
11 12 12 12 12 12 12 13 14 15 15 16 16 17 16 16 16 16 16 15 15 14 13 11 9 8 4 2 7 15 16 14 14 14 15 15 14 13 12 14 14 15 15 8 7 11 10 7 6 3 4 2 1 2 3 3 1 2 2 5 11 7 10 13 9 5 6 4 6 9 5 9 7 10 17 21 11 2 7 11 9 9 10 9 9 9 8 11
11 12 13 13 13 13 14 14 15 16 17 18 18 18 17 17 17 17 17 16 15 14 12 10 9 8 4 2 8 15 21 21 19 19 19 18 15 13 12 13 13 12 13 9 5 4 6 8 7 4 3 2 3 2 0 3 3 5 2 1 9 7 9 10 2 1 4 4 6 7 3 7 11 17 17 15 10 4 6 12 13 9 8 8 8 8 9 11
11 12 13 14 14 14 15 15 17 18 19 20 19 19 19 18 18 18 17 18 16 13 10 7 6 6 4 6 8 8 15 18 20 22 22 20 16 11 10 11 11 11 11 8 5 2 2 6 7 3 1 3 3 4 3 5 4 4 3 1 3 3 8 7 3 1 3 4 7 6 5 8 12 20 17 10 6 6 8 12 13 10 8 8 8 8 11 12
11 12 13 14 14 15 15 17 18 20 22 21 20 20 21 19 18 18 18 17 14 10 6 4 7 7 2 8 10 8 13 15 19 25 24 21 17 10 8 10 9 8 8 7 5 4 4 6 5 2 2 1 1 3 4 4 3 2 2 4 2 2 7 11 6 5 8 5 4 6 6 8 11 19 17 7 3 7 9 12 12 11 11 9 8 8 10 11
12 12 13 13 14 15 16 17 19 21 24 22 21 23 22 20 18 17 16 14 12 7 3 4 9 7 0 5 6 6 11 13 16 20 19 20 18 10 7 9 7 5 6 5 5 6 7 5 2 2 1 2 1 2 3 4 5 2 2 5 5 5 4 8 10 8 10 4 2 7 7 6 8 14 14 6 2 6 8 11 12 13 12 10 9 7 8 10
12 12 13 13 14 15 16 18 20 22 25 23 23 25 21 16 14 11 9 5 3 6 6 3 6 4 2 5 5 6 9 14 15 13 13 17 17 12 9 7 5 7 7 5 6 5 3 3 1 0 1 2 2 5 3 3 6 3 2 4 5 7 5 4 9 7 4 5 6 8 9 11 11 12 13 9 4 6 8 11 13 12 11 9 8 8 9 9
12 13 13 14 15 16 17 19 21 24 26 23 25 24 13 7 6 3 4 9 10 8 4 1 4 2 5 6 7 7 5 8 10 8 10 12 13 12 9 6 6 9 8 4 2 3 1 2 1 1 2 3 3 5 3 7 8 7 6 5 4 5 7 6 8 6 3 5 7 5 9 15 15 13 15 15 10 9 12 12 12 12 11 10 9 10 11 11
12 13 14 15 16 17 18 20 21 25 26 25 26 18 5 5 6 7 9 10 8 5 1 3 5 2 4 8 9 7 4 4 5 4 7 10 12 11 8 7 7 8 5 1 1 3 2 3 3 3 3 8 7 8 11 15 14 11 7 6 6 6 7 8 11 10 5 8 7 7 14 16 15 14 15 18 13 11 17 15 12 12 12 12 12 12 13 14
12 13 14 15 16 17 19 20 22 24 24 26 27 13 2 5 4 3 3 1 4 4 2 5 8 4 5 5 4 4 4 4 3 3 9 11 13 12 5 4 6 4 4 5 4 3 3 4 4 6 11 15 12 13 17 18 11 6 3 6 8 8 10 10 13 12 2 4 8 9 17 18 14 14 14 18 15 12 17 18 16 14 13 13 14 15 15 16
12 14 14 15 16 17 19 19 21 23 22 23 21 9 2 2 2 3 4 5 10 11 8 9 11 10 11 9 5 3 1 2 2 4 11 13 14 12 2 3 5 2 3 5 3 0 3 6 8 14 20 16 11 13 15 12 7 5 5 8 7 7 12 12 13 14 2 2 7 8 16 20 15 14 13 14 16 16 17 18 20 17 14 13 14 18 18 15
13 13 14 15 15 16 18 18 20 21 19 19 14 6 3 1 3 4 2 4 10 10 10 12 10 11 17 20 16 5 1 4 4 3 11 11 9 8 3 5 7 4 3 4 2 1 3 7 13 20 17 7 4 6 7 7 8 7 5 6 7 7 11 10 10 13 3 2 7 8 15 18 13 13 13 14 17 18 17 17 19 19 16 14 15 17 18 17
14 14 15 15 14 17 16 17 20 17 17 16 9 5 2 3 3 3 2 2 8 6 6 9 8 8 13 20 18 9 5 9 6 6 13 12 4 5 5 6 6 3 5 7 7 7 5 7 16 18 8 4 7 4 6 5 5 6 6 6 8 7 8 8 6 7 3 3 7 9 14 15 11 12 13 16 19 18 17 16 16 18 17 17 19 17 16 18
14 14 15 16 16 17 16 18 17 12 15 13 5 4 6 5 2 1 1 2 5 6 7 9 6 6 10 11 9 10 8 7 4 5 13 15 4 2 5 6 5 3 6 13 13 12 10 8 9 10 6 8 10 6 6 5 6 8 9 7 10 12 12 10 4 6 5 5 5 7 14 13 9 11 11 12 15 15 15 15 14 18 19 17 18 17 16 17
13 14 14 15 16 16 18 18 10 8 15 9 3 5 7 4 2 1 1 2 4 6 5 5 3 5 9 5 4 8 4 3 5 5 13 17 8 4 3 3 4 6 11 12 11 11 11 6 4 7 8 9 9 8 8 7 9 9 7 12 18 17 13 11 7 6 5 5 4 3 8 10 5 10 10 8 9 11 11 12 15 18 20 16 13 15 15 15
14 15 15 15 15 16 15 10 5 9 13 4 2 8 7 4 4 1 1 3 4 5 2 2 2 3 5 3 4 5 2 4 5 4 10 13 10 5 2 2 1 6 9 7 4 5 7 4 6 8 9 9 8 7 8 10 9 9 6 13 17 13 10 11 8 3 2 4 4 2 1 10 6 6 10 9 8 10 10 11 15 17 17 13 9 11 14 13
14 14 14 14 14 14 9 4 7 10 7 1 5 9 7 5 3 3 1 3 5 3 2 1 0 1 2 2 3 5 3 5 3 3 3 4 5 2 2 5 2 2 4 2 2 4 4 4 5 8 7 6 6 8 9 11 8 8 4 8 10 9 10 9 6 5 4 3 3 1 4 6 13 6 9 11 10 10 11 13 16 17 15 11 9 10 13 14
15 14 13 13 13 12 9 8 10 7 2 2 6 8 7 5 2 1 2 3 5 1 2 2 0 1 1 1 1 4 2 3 3 2 3 2 1 1 2 7 5 3 3 4 5 4 4 5 7 8 6 5 8 9 6 11 8 7 1 4 6 6 6 5 5 5 1 3 3 3 5 2 13 7 3 4 7 8 13 16 18 17 12 10 10 12 13 13
15 14 14 12 10 11 12 11 10 6 4 3 5 8 7 5 2 4 3 4 3 1 1 1 1 1 3 2 1 2 2 3 2 3 4 2 0 3 2 5 4 4 4 5 9 6 1 5 7 9 6 7 8 5 6 12 9 4 6 5 4 4 3 4 4 4 2 4 5 7 6 3 12 8 4 3 3 8 12 14 14 12 9 10 10 12 12 11
12 13 13 11 9 9 10 11 13 10 8 5 4 7 5 4 2 2 4 5 2 2 1 1 0 1 3 3 3 4 2 2 1 2 3 1 3 5 0 2 3 2 4 4 8 7 3 1 3 5 5 6 4 2 3 8 6 3 6 5 6 4 4 4 1 3 2 7 6 12 13 7 8 6 4 3 4 6 8 8 8 8 9 11 10 10 11 10
10 10 10 10 11 11 7 6 11 11 10 9 3 2 1 2 2 3 7 2 1 3 0 1 2 2 4 2 2 3 0 2 1 1 0 1 2 4 1 1 2 2 3 5 7 6 4 2 2 3 2 4 6 4 1 1 4 4 3 4 3 4 4 4 4 4 1 8 6 11 13 10 8 6 2 5 6 5 6 7 8 9 10 10 9 9 9 8
9 10 10 10 13 14 9 5 5 4 5 5 1 2 2 1 1 6 5 3 2 3 1 0 2 2 4 2 2 2 1 2 1 3 3 2 2 2 3 4 3 1 5 4 4 5 4 6 4 1 2 5 6 3 3 4 3 4 3 4 1 4 3 2 3 1 4 8 5 6 7 6 10 8 4 9 10 8 9 8 9 9 9 9 9 9 8 8
9 9 9 10 12 15 15 12 7 5 5 6 4 3 4 2 5 4 2 1 2 1 1 1 1 2 3 1 3 3 1 2 3 2 1 2 2 3 4 5 5 2 5 3 2 4 4 5 3 3 3 4 8 6 3 2 5 7 5 6 5 3 3 4 3 2 5 7 3 3 5 4 8 5 8 14 14 11 9 8 9 9 9 10 9 10 10 10
10 10 9 10 11 14 17 18 14 9 6 7 4 3 2 6 6 2 3 5 4 2 2 2 2 2 1 2 4 3 1 3 3 3 1 2 1 3 4 5 5 3 2 2 2 1 4 8 4 7 3 6 11 11 9 4 4 7 6 5 5 6 5 4 4 6 7 5 3 1 4 4 3 3 8 11 9 6 5 6 7 7 6 7 8 9 10 11
13 11 11 11 11 13 17 19 16 12 9 7 4 2 5 8 5 1 4 4 2 3 3 0 2 1 2 3 4 3 4 4 1 4 2 3 2 3 3 5 7 5 3 3 2 2 5 9 6 4 1 8 10 7 4 6 1 4 4 4 4 5 5 4 6 6 4 2 2 3 4 5 4 6 7 8 8 7 6 5 5 6 6 6 7 8 8 9
14 13 12 12 14 15 17 20 17 15 12 6 2 5 8 8 4 3 3 2 1 1 3 4 1 2 5 3 2 3 2 2 0 1 2 3 3 4 4 4 7 9 7 5 3 2 4 7 3 1 2 3 4 2 1 3 2 2 3 3 5 3 6 5 7 2 1 4 5 4 6 5 4 8 7 5 8 9 8 7 5 6 6 6 7 7 7 8
13 12 10 12 17 16 15 19 20 18 11 5 4 7 6 5 5 5 3 1 1 3 2 4 3 3 4 2 2 2 0 1 1 1 2 2 3 4 5 4 4 11 13 8 3 3 4 6 2 2 1 2 1 0 2 1 3 5 3 5 2 2 2 2 3 2 2 8 6 5 12 8 3 7 5 6 6 6 6 5 5 6 5 5 7 7 8 9
12 9 9 15 22 21 16 18 22 17 6 3 9 11 5 4 5 5 4 3 1 1 2 4 4 3 4 4 4 2 2 2 1 2 2 2 4 4 4 4 3 8 11 6 1 2 1 4 4 2 2 4 3 1 3 3 3 5 3 2 2 1 3 1 2 3 6 10 6 7 14 11 6 8 5 5 7 8 6 2 3 8 6 5 8 9 10 9
7 4 6 10 15 21 21 21 19 10 2 4 10 10 5 5 5 4 5 4 2 2 3 6 5 3 4 5 5 3 4 4 3 2 3 3 4 3 3 2 2 3 5 4 3 3 1 2 5 1 2 2 4 1 2 3 1 2 0 1 2 4 3 3 3 2 5 10 8 8 11 8 6 6 5 8 10 8 7 4 5 8 7 6 7 8 9 10
2 2 5 5 5 15 24 21 13 5 4 6 9 7 3 3 4 3 5 5 3 2 4 5 5 5 6 6 5 4 4 5 4 3 3 3 5 4 2 2 1 1 0 2 2 2 2 2 5 4 2 3 2 3 5 5 3 1 2 3 3 3 1 1 2 2 3 7 7 7 8 7 6 4 6 9 9 8 8 6 7 8 7 8 8 8 8 8
2 1 5 6 3 17 23 14 6 5 5 6 8 9 5 4 4 3 4 4 4 3 2 3 5 6 6 6 5 3 2 3 4 5 4 4 6 6 4 4 5 3 2 3 0 1 1 2 4 5 5 7 8 6 7 7 5 3 4 4 5 5 3 5 6 4 4 6 7 8 9 7 6 7 8 7 7 9 9 7 8 8 8 9 8 8 7 6
3 3 2 5 7 23 17 5 4 4 5 6 6 6 4 4 4 4 3 3 3 3 1 2 5 5 5 6 6 4 3 3 5 5 5 7 9 8 5 3 5 4 2 1 3 4 3 2 3 6 7 10 13 8 6 7 5 3 4 3 4 5 4 7 10 7 6 8 8 10 11 7 6 11 13 8 7 8 8 7 8 8 7 8 8 8 7 7
3 4 5 5 13 24 10 3 7 5 5 4 4 5 4 3 4 4 3 3 3 3 3 3 5 6 6 6 6 5 4 4 6 8 7 7 9 10 10 7 5 3 1 3 3 2 2 3 3 7 6 7 11 11 6 5 4 4 5 6 8 8 9 10 9 5 6 8 7 9 11 5 5 9 14 13 10 10 9 9 9 9 7 6 8 9 8 9
2 3 4 6 11 15 5 4 8 6 6 5 6 8 6 3 5 7 6 4 4 4 5 5 5 6 7 5 6 7 6 5 7 10 8 5 6 8 8 8 6 5 5 4 3 3 3 3 3 5 5 4 5 7 7 3 4 5 7 9 11 12 13 12 7 4 6 10 11 12 11 6 3 7 11 15 17 18 16 10 7 6 7 8 8 8 9 10
3 2 2 6 9 7 3 4 4 5 7 9 10 11 8 5 5 8 8 6 4 4 3 4 3 3 3 4 5 6 6 6 6 5 3 3 4 3 5 7 6 5 5 4 4 1 3 3 3 4 6 7 6 7 6 3 2 3 5 9 12 14 15 12 8 8 10 11 13 13 12 9 7 6 9 14 17 18 20 17 9 7 7 8 8 8 9 8
2 2 2 3 4 4 4 4 2 3 4 6 8 9 11 12 7 5 6 6 7 6 4 4 4 3 3 4 5 7 8 8 7 4 4 5 3 3 7 9 6 4 8 10 6 3 1 3 6 10 11 10 12 12 9 7 5 4 5 8 11 11 13 11 8 10 11 11 13 13 14 15 12 9 11 14 16 17 19 21 20 13 8 8 8 6 5 7
1 2 1 2 2 3 4 4 3 2 2 3 3 3 8 12 8 3 5 4 5 5 3 5 6 5 4 4 5 6 7 7 8 7 6 4 3 5 8 8 6 8 10 8 5 3 1 3 8 15 16 15 17 19 17 15 14 13 12 12 11 10 11 11 12 14 13 13 14 13 14 19 15 11 13 15 16 17 18 20 22 20 16 12 8 9 11 12
1 1 1 2 2 2 3 3 2 2 3 2 2 4 7 11 9 5 4 3 1 1 3 3 1 1 1 0 2 2 3 4 4 2 2 3 4 7 8 6 4 8 11 7 6 3 1 4 7 13 16 15 16 18 18 18 17 16 16 16 17 17 17 16 18 18 15 15 16 15 17 21 17 13 15 15 15 17 18 19 18 18 17 14 12 13 13 12
0 1 2 2 1 2 3 3 4 4 3 3 2 3 7 11 11 6 2 2 2 1 4 3 2 5 4 2 0 0 2 3 2 1 3 5 5 4 5 5 3 5 9 8 6 2 3 4 5 9 13 13 13 16 17 18 19 18 19 19 19 20 21 21 21 21 20 21 21 20 22 24 17 12 11 10 11 12 12 14 15 15 14 13 13 13 13 12
0 0 2 3 2 3 3 3 3 3 3 4 4 4 4 7 7 3 1 2 2 2 1 2 4 3 2 2 2 2 3 2 3 2 2 4 5 2 1 4 4 5 7 6 3 3 4 3 6 8 9 9 11 13 15 16 17 19 19 19 19 19 21 22 20 19 20 22 23 23 24 19 9 9 9 10 12 13 15 15 14 13 12 12 13 12 12 11
2 1 1 2 3 3 1 1 2 3 4 3 4 4 4 4 3 3 2 3 2 1 3 5 3 1 1 1 1 3 4 3 3 4 2 2 3 3 2 3 5 8 9 5 2 3 4 4 6 8 8 8 9 10 13 14 15 17 18 19 21 20 18 17 17 18 19 20 22 21 15 8 7 10 9 9 12 13 13 12 11 10 11 11 11 11 11 12
1 2 1 1 3 3 1 2 2 3 4 2 1 2 2 1 4 5 3 1 3 4 6 6 3 3 2 4 4 0 3 2 3 5 5 6 8 8 7 9 9 7 6 6 4 3 4 5 5 7 8 9 11 13 13 12 12 13 12 14 20 21 19 19 18 16 12 9 9 8 3 2 6 9 11 12 13 13 12 9 7 10 10 9 10 10 10 10
Wind_Direction
358 358 356 356 353 352 353 352 352 352 355 354 355 356 354 354 352 350 347 346 346 347 350 346 347 347 344 340 333 328 320 311 299 275 248 270 279 256 249 247 218 208 206 198 182 161 141 146 165 143 118 94 14 11 105 37 99 71 94 143 237 203 202 194 193 203 194 269 279 304 245 176 268 288 284 344 267 258 268 273 271 280 270 227 281 316 155 162
354 351 351 352 349 349 347 346 346 345 348 347 349 349 348 349 346 346 343 342 342 342 345 344 345 344 346 344 335 334 326 315 299 272 266 290 291 253 237 228 217 208 202 200 198 174 149 182 172 116 78 87 326 6 45 276 137 128 127 176 234 204 215 202 192 209 204 253 280 291 269 186 230 262 47 266 264 270 261 272 294 283 270 263 304 138 157 162
349 346 346 347 346 346 342 342 341 339 341 340 342 342 342 342 340 340 338 337 337 339 340 340 341 342 345 342 339 341 329 324 312 272 279 20 1 275 223 215 211 204 206 210 209 195 178 180 163 120 63 13 285 22 65 251 187 174 139 218 245 215 234 239 212 225 230 251 290 283 265 184 237 243 124 236 265 263 235 248 240 253 256 243 193 149 164 166
345 342 341 344 345 342 339 338 336 335 335 335 336 336 335 334 334 333 331 331 330 332 334 335 336 338 340 338 343 340 333 349 314 224 129 19 7 355 218 206 204 202 208 214 210 200 170 142 144 110 80 234 310 22 177 222 202 178 158 209 237 194 230 249 221 230 246 234 240 265 342 284 259 208 198 223 278 270 235 229 221 227 244 230 191 177 176 174
340 338 338 340 341 338 336 334 332 332 330 331 331 330 329 328 328 326 324 323 322 323 325 327 329 332 336 336 343 345 357 19 266 207 315 329 345 340 234 201 204 206 207 213 194 174 156 121 111 68 83 196 302 61 233 221 152 166 213 224 228 172 222 254 222 220 233 199 227 269 296 277 269 216 216 199 242 260 225 212 219 222 237 219 184 186 180 183
335 334 335 337 339 336 334 333 331 330 328 328 327 325 325 323 322 319 318 317 315 314 314 317 319 325 329 330 336 348 32 323 262 271 306 311 324 315 233 200 205 208 209 206 177 161 157 109 101 111 121 212 197 193 244 223 148 222 250 247 237 205 227 263 241 218 201 218 262 261 273 286 291 274 223 188 233 250 231 208 215 223 235 211 166 171 182 193
335 335 336 338 340 335 334 332 330 329 328 328 326 325 323 321 319 315 312 310 309 308 307 308 310 313 319 324 323 356 93 245 274 291 300 303 306 286 224 206 203 208 209 197 175 162 139 116 154 167 127 295 221 212 239 208 163 232 257 261 250 222 229 256 262 260 256 258 261 276 318 288 262 271 258 218 245 251 252 242 233 239 227 176 159 176 191 196
340 339 339 343 342 339 337 332 330 329 328 328 326 325 323 322 319 313 311 306 304 303 301 301 301 305 309 312 315 351 58 255 276 288 293 299 293 268 224 206 201 208 207 203 193 172 146 146 186 168 135 253 202 192 217 154 207 224 237 249 260 240 240 258 269 270 268 260 261 293 288 262 243 264 309 262 262 264 255 247 244 241 191 170 187 194 198 202
343 340 342 345 345 343 338 334 332 328 326 326 324 324 322 321 318 312 308 303 302 297 294 295 296 298 295 305 92 330 267 253 272 286 288 290 282 260 227 209 203 206 205 213 205 179 171 184 205 194 202 232 176 196 207 184 246 218 224 249 263 269 269 273 271 251 245 249 216 235 271 267 251 266 277 261 262 272 248 238 243 226 206 203 206 202 201 207
342 342 343 345 349 346 340 336 332 329 327 324 322 322 319 318 315 310 306 301 299 295 291 284 282 285 273 225 105 272 266 258 268 276 280 279 270 248 225 216 208 205 202 211 205 189 187 197 201 180 188 205 179 213 177 174 218 200 217 263 256 271 284 259 255 248 227 248 204 204 262 272 276 138 269 264 251 263 239 239 245 220 225 222 214 213 207 211
342 343 344 349 354 348 345 341 336 333 329 325 324 320 317 315 311 306 303 298 296 297 292 277 268 267 251 179 178 248 268 271 272 275 276 275 264 247 235 228 217 209 202 196 204 205 206 197 162 130 190 211 196 238 224 201 206 204 248 299 280 294 301 263 259 259 210 255 208 189 254 278 301 170 252 265 252 117 290 273 251 222 236 231 221 222 211 219
337 339 343 351 356 354 350 344 340 337 331 329 325 321 319 314 309 302 297 293 292 296 293 279 262 247 230 171 221 248 263 268 270 273 272 270 257 248 239 228 224 217 209 202 216 216 216 204 151 151 227 194 270 284 248 230 26 298 28 326 295 330 312 277 275 247 185 227 184 156 260 281 261 233 242 259 264 287 289 278 262 234 238 240 230 229 222 228
332 335 339 345 353 354 351 346 343 339 335 332 326 324 319 312 307 299 293 288 287 293 291 279 259 232 201 247 243 249 258 260 261 264 263 258 250 243 232 222 223 223 218 216 220 207 206 210 184 192 215 163 259 257 214 24 12 298 18 360 297 338 308 280 336 58 175 200 163 140 264 262 255 259 252 258 270 273 269 269 267 253 241 241 234 232 235 234
328 332 334 339 346 348 347 345 342 340 337 332 330 328 320 313 305 294 289 284 284 291 287 271 239 198 177 256 260 252 253 252 251 251 251 247 237 232 227 218 218 217 219 218 207 171 163 195 174 160 220 172 248 292 340 3 5 302 309 298 307 318 282 293 47 65 253 223 158 153 251 251 260 270 265 262 257 234 246 260 266 266 256 244 233 229 240 239
327 329 331 335 339 342 343 342 340 339 337 333 334 332 324 313 300 290 283 278 280 284 276 228 186 159 115 272 267 261 251 247 248 248 247 241 226 217 221 210 207 208 209 209 198 189 168 157 145 149 257 252 318 316 328 340 353 358 282 281 304 214 269 304 308 212 233 265 130 156 241 256 260 268 270 274 227 210 238 258 264 269 266 258 248 230 238 247
324 325 328 332 335 339 340 340 339 339 336 333 335 334 325 312 299 287 278 273 272 255 205 180 182 161 64 271 276 276 246 236 247 250 245 237 228 215 191 182 179 169 174 182 162 168 162 136 122 157 205 279 216 142 38 353 319 334 217 246 261 243 268 312 298 238 216 236 174 200 232 259 257 263 273 285 213 218 242 263 265 265 267 264 264 254 246 253
322 323 328 332 334 337 339 340 339 339 337 336 337 335 327 315 304 292 277 263 230 174 141 163 182 166 273 271 292 279 239 235 244 249 236 227 222 205 169 140 128 128 116 115 141 149 138 114 120 57 26 270 157 107 58 294 272 285 225 227 247 248 248 286 293 284 204 183 211 228 236 249 255 264 281 290 275 258 249 256 262 263 268 266 267 268 262 257
321 323 328 330 333 336 338 339 339 340 338 338 341 336 332 346 349 7 122 122 112 116 97 24 143 157 267 251 256 256 243 236 233 232 220 208 200 191 168 131 121 119 97 65 122 143 22 29 90 51 319 259 155 123 181 230 235 238 229 233 251 240 240 249 264 278 277 221 211 231 249 252 261 271 280 279 275 276 264 254 257 263 266 266 265 263 263 263
317 321 325 328 333 335 337 339 340 342 340 342 347 341 342 37 48 90 105 110 105 112 176 218 168 165 251 242 248 261 272 212 197 203 187 173 172 169 147 125 113 110 111 87 223 182 135 58 79 123 232 237 207 171 201 224 228 229 227 234 247 249 246 241 249 253 268 275 255 247 259 258 263 266 270 274 268 263 268 265 259 260 264 264 262 258 257 260
315 319 322 326 331 333 338 340 340 344 343 346 351 352 24 24 25 52 26 339 225 213 201 211 208 234 272 271 262 249 252 205 192 180 163 161 157 149 125 95 82 81 143 163 195 205 140 161 176 185 218 228 209 191 210 227 235 239 231 240 245 255 262 251 259 261 217 279 261 241 263 266 262 261 262 272 273 261 265 271 266 259 259 260 260 260 256 253
313 316 319 325 328 332 337 339 341 345 344 348 357 13 95 39 352 311 318 286 259 250 254 241 226 247 261 265 256 203 240 234 225 165 167 168 151 147 167 121 126 174 186 150 150 91 152 191 205 210 222 227 209 203 218 232 249 250 236 255 257 245 260 259 264 272 207 207 259 241 266 270 262 262 258 265 273 265 259 263 268 265 257 257 259 260 259 255
307 309 313 320 325 330 335 339 340 341 342 352 14 61 127 258 268 264 258 291 280 256 250 254 242 253 258 258 257 242 15 270 259 193 171 165 151 170 200 145 165 194 146 119 114 188 208 218 221 222 227 237 225 200 200 220 231 237 239 262 263 247 270 271 257 272 271 189 270 264 265 268 260 258 253 251 257 258 255 253 262 268 263 259 256 256 260 262
299 302 308 312 319 325 329 336 335 337 345 356 24 76 27 322 277 248 180 270 288 265 236 243 231 233 248 258 251 217 230 243 245 236 179 161 159 189 166 153 176 156 138 178 197 201 214 231 230 230 229 231 247 204 158 213 229 217 225 244 260 253 263 264 253 292 313 216 272 284 275 273 258 249 245 243 247 253 259 254 256 264 260 256 254 254 259 262
296 298 303 304 310 315 321 329 331 339 349 356 37 41 359 336 279 191 201 264 280 272 242 226 215 213 229 252 230 190 220 226 216 237 176 159 144 145 165 159 148 148 189 205 211 218 234 242 227 222 208 205 235 231 188 235 252 218 213 222 247 248 243 249 274 341 327 271 288 302 292 283 232 225 239 239 245 251 257 258 257 261 257 252 256 259 259 259
290 292 296 300 305 307 312 321 327 345 345 353 59 359 354 339 310 123 349 323 284 285 275 231 207 226 227 222 169 175 202 227 225 210 169 168 157 133 191 166 150 205 211 211 222 239 250 244 162 175 204 205 218 233 209 214 248 246 214 215 236 247 251 260 288 345 341 299 317 350 306 295 199 191 231 240 241 246 249 252 251 256 259 254 255 261 260 256
279 283 288 294 299 304 311 317 318 336 341 357 35 349 347 335 310 255 55 5 283 274 296 221 182 213 217 169 157 153 123 265 255 160 163 180 174 143 166 175 194 225 203 198 226 247 253 227 161 177 200 198 203 241 221 199 238 266 225 212 231 247 256 259 269 306 274 255 294 61 270 287 277 196 219 230 233 244 246 247 247 250 257 256 251 258 262 259
268 274 281 288 293 297 302 300 302 325 341 339 355 349 344 347 325 267 344 354 290 235 139 259 360 119 192 193 173 141 169 277 346 79 134 177 195 150 170 198 207 231 171 145 268 239 212 200 190 195 188 172 189 240 225 186 211 265 235 195 208 223 236 236 227 220 234 269 302 103 138 274 285 248 200 212 216 240 252 250 251 249 252 260 256 253 260 261
263 266 271 279 289 286 273 273 292 313 310 294 344 348 348 355 337 10 34 305 286 121 122 272 255 95 350 341 107 120 208 299 41 340 343 55 203 103 225 222 189 200 164 147 238 241 164 191 203 185 169 178 204 228 199 157 197 258 192 162 178 195 212 182 174 200 245 343 289 216 140 238 277 270 134 198 211 232 249 244 247 250 253 263 262 257 259 265
269 265 262 266 282 277 262 262 268 275 272 290 350 348 355 354 345 65 80 255 284 58 98 311 159 303 3 48 282 26 358 359 68 295 338 51 359 68 206 228 165 215 239 188 231 258 175 208 193 162 166 210 216 224 161 158 202 231 100 88 73 74 73 102 146 153 92 307 247 194 164 210 276 279 84 83 206 225 241 242 250 259 260 260 262 266 266 267
280 274 265 257 258 250 240 249 255 259 264 269 324 344 347 337 8 80 238 245 327 318 242 48 283 312 54 86 314 337 347 320 7 346 6 66 351 24 157 230 112 199 273 264 254 259 247 227 163 167 188 196 169 109 165 173 184 142 100 55 31 27 29 55 53 88 78 279 234 182 181 189 272 287 128 164 226 226 239 253 272 276 267 261 260 266 269 268
291 288 272 248 239 231 212 241 258 252 250 255 287 11 5 360 70 197 241 239 15 291 325 38 319 42 70 103 291 315 303 296 332 99 69 124 19 25 30 286 64 59 316 292 278 273 255 226 204 212 179 126 108 93 15 84 117 120 102 71 21 329 5 25 352 53 177 266 231 183 182 184 233 262 201 248 267 250 236 240 252 260 262 266 267 267 274 278
296 294 277 253 241 232 219 231 243 214 216 216 172 66 81 36 232 217 251 360 348 273 85 269 278 76 80 99 247 252 186 276 275 151 168 156 157 175 197 207 169 346 299 255 278 308 264 223 204 192 178 146 135 132 356 6 103 121 111 126 161 304 337 336 312 94 214 256 247 182 173 201 242 253 257 266 269 249 228 224 234 246 258 267 275 280 284 288
294 295 286 266 247 235 232 234 225 195 174 152 127 47 81 192 243 203 195 295 248 249 77 95 8 97 119 96 259 244 171 232 219 168 165 124 168 245 250 220 171 204 262 226 313 320 285 267 160 137 256 189 156 174 225 251 179 165 157 158 172 207 245 255 259 262 253 265 280 175 172 245 279 269 226 235 248 244 225 223 232 235 252 267 280 292 299 303
290 290 287 275 255 244 240 235 229 219 182 135 115 56 113 227 249 122 165 226 246 321 25 108 57 42 146 216 241 209 207 249 175 143 191 111 131 266 258 235 191 175 238 231 301 242 256 283 200 164 227 186 178 202 202 161 164 189 169 146 180 193 190 207 224 248 258 272 309 218 189 213 261 271 228 229 257 275 241 236 248 247 260 286 300 308 311 311
290 287 285 275 254 243 236 232 228 212 176 126 112 178 214 239 255 202 212 229 274 311 321 314 97 43 278 254 252 223 220 253 101 111 190 173 189 220 207 214 197 172 161 213 252 173 222 268 240 184 151 161 183 223 178 117 133 226 131 110 227 207 172 217 246 236 238 288 285 227 227 224 230 269 264 255 275 282 268 277 298 300 316 332 314 301 299 297
294 291 285 267 254 245 230 225 219 198 172 133 143 216 228 236 220 191 213 214 211 208 330 313 208 221 267 253 277 287 210 221 181 131 215 203 220 222 209 220 197 182 181 196 227 201 234 271 261 112 31 143 181 289 114 142 213 213 121 186 239 162 149 230 273 293 84 265 249 222 253 275 297 284 275 271 271 267 278 302 310 300 317 326 298 282 283 286
306 299 279 253 254 250 230 221 209 190 171 151 207 223 229 227 202 197 202 185 180 120 77 291 243 211 251 252 271 280 181 233 200 173 221 226 241 208 200 249 206 191 205 214 231 245 254 284 288 137 270 293 204 337 346 38 132 131 170 227 257 52 129 183 263 323 268 252 246 241 260 272 284 275 312 11 329 287 287 312 312 289 284 294 293 289 285 281
319 306 277 261 255 247 230 214 198 182 157 176 228 232 225 212 212 203 183 174 236 145 164 241 242 212 218 235 248 204 192 241 157 160 222 231 237 176 167 245 213 197 222 223 241 314 315 292 300 134 196 298 1 57 321 336 124 143 195 237 109 188 249 163 190 233 241 249 248 242 259 263 234 245 287 313 284 277 276 279 294 284 282 297 301 295 293 298
316 302 276 273 255 236 218 197 182 171 151 203 228 236 217 213 225 204 185 186 208 224 228 235 240 244 233 234 245 227 217 219 179 190 220 222 239 179 141 240 233 214 231 179 182 278 354 262 275 225 145 341 8 87 217 253 219 134 251 325 118 175 200 186 195 199 232 252 256 240 247 257 241 225 226 239 241 247 253 245 255 267 269 274 277 283 303 322
270 272 261 291 268 213 196 179 166 178 212 214 229 235 221 232 241 231 222 217 208 217 236 232 225 238 246 245 246 243 235 223 205 209 216 228 252 247 219 220 198 220 269 127 204 278 20 265 262 275 306 321 293 208 193 209 217 183 222 242 228 208 200 239 233 185 224 253 260 252 245 249 262 237 210 234 235 209 203 221 252 264 267 271 284 303 320 334
216 235 252 300 262 179 171 165 174 204 210 223 239 240 243 253 252 263 251 230 231 246 234 205 211 230 245 256 250 222 216 235 215 209 219 230 239 248 245 199 184 187 68 57 260 198 156 228 242 254 265 261 250 217 184 194 197 179 205 228 233 230 247 273 255 217 217 248 250 255 256 245 255 264 247 232 214 202 202 218 252 276 292 298 308 314 318 320
216 206 271 332 178 166 160 173 207 200 219 227 240 246 247 247 238 240 239 222 222 243 296 235 225 234 242 252 255 221 207 231 216 213 231 228 219 224 233 179 164 175 161 186 226 202 152 137 203 230 235 246 255 244 193 192 207 214 211 219 243 234 214 240 250 239 235 246 242 252 259 236 213 255 266 248 202 211 227 246 270 286 294 296 295 291 290 284
210 240 315 338 180 171 164 227 204 209 237 236 274 262 243 249 245 233 218 211 207 214 248 242 231 241 238 239 249 236 229 230 215 223 244 244 228 224 225 204 161 137 229 245 246 217 111 99 227 245 249 258 268 271 251 205 206 249 238 214 225 233 228 234 246 256 255 250 250 258 258 230 179 243 268 274 264 257 255 254 265 280 283 266 264 276 279 275
301 271 299 297 215 191 187 217 207 224 232 240 265 247 238 240 236 243 238 211 190 199 227 229 226 239 234 228 237 229 225 229 225 232 239 240 244 241 237 233 218 200 205 217 232 230 208 184 214 249 263 261 267 274 272 230 188 227 239 228 227 232 238 249 259 275 264 248 246 259 260 245 221 240 259 274 277 277 275 262 226 232 264 268 263 270 272 269
323 272 248 278 251 230 243 231 219 232 229 238 247 244 252 253 226 237 241 228 205 195 230 251 247 260 247 249 262 244 229 235 246 260 255 248 273 302 343 327 290 241 248 310 3 326 252 220 197 237 252 251 257 259 256 248 207 215 231 231 231 229 231 243 255 253 254 245 238 250 263 259 250 246 255 267 273 279 286 287 268 223 227 250 256 257 264 278
311 285 281 295 260 233 262 277 260 227 224 240 241 236 242 248 251 228 215 229 230 215 237 264 261 277 252 245 265 261 251 245 244 265 275 276 302 354 355 343 336 323 319 333 9 62 253 257 236 243 249 254 265 266 265 272 264 254 250 236 233 233 231 235 246 247 256 261 250 251 266 270 260 252 258 266 274 282 289 292 290 280 256 255 265 280 322 353
239 263 252 286 277 231 247 274 273 241 257 261 252 251 243 247 262 247 208 230 235 215 238 253 245 250 239 228 245 255 264 256 244 254 267 283 327 323 329 337 353 11 7 356 9 57 193 255 249 251 254 254 261 268 271 274 269 262 264 260 254 252 243 238 246 250 255 265 263 257 265 269 265 256 257 262 270 277 279 282 285 290 298 312 345 22 30 25
225 262 270 280 285 240 235 271 315 315 317 306 286 298 275 262 265 260 245 277 321 184 224 241 262 39 61 139 233 249 307 286 260 284 341 17 352 324 332 334 335 20 29 10 353 21 239 261 258 259 264 262 263 270 271 272 272 267 265 264 260 258 254 249 250 251 250 255 262 264 262 264 266 260 257 262 269 275 280 287 297 312 329 356 29 38 31 22
309 278 294 323 313 282 291 315 338 333 304 290 276 259 262 263 261 256 264 318 332 262 232 227 82 75 66 44 109 260 321 296 267 354 45 19 352 335 332 314 302 36 29 354 334 320 232 269 278 271 278 277 272 273 272 271 272 269 265 261 257 256 256 256 257 257 255 255 260 263 260 260 267 280 289 307 317 317 325 336 350 2 9 20 29 24 18 12
311 231 304 346 314 276 305 305 302 310 286 262 254 241 240 253 255 268 335 240 241 279 259 124 97 99 119 103 111 222 259 252 237 237 39 7 345 356 346 308 311 337 343 334 316 275 262 296 321 307 293 283 277 273 269 267 267 269 271 268 264 262 260 260 263 263 262 260 259 260 259 261 292 339 346 1 6 6 8 9 14 19 15 16 17 14 10 3
240 294 311 329 294 266 284 302 280 281 270 239 231 251 258 253 272 331 313 233 219 270 82 90 72 37 157 170 197 227 219 176 185 225 245 259 266 269 253 264 292 312 315 301 261 281 288 294 312 307 288 280 283 277 274 278 276 273 273 269 264 262 259 258 258 255 258 264 265 266 268 279 341 351 350 5 13 11 6 4 7 8 7 11 12 7 0 355
225 299 265 187 272 263 232 318 304 255 256 248 248 287 287 356 27 4 302 275 94 110 95 72 28 360 349 312 319 91 156 177 223 243 246 231 233 238 237 241 245 251 271 278 265 254 257 272 292 290 285 288 287 283 287 294 286 272 265 261 258 258 260 261 261 261 270 286 282 275 285 328 330 347 358 1 3 359 350 349 0 1 1 5 5 1 356 350